AirNav   Air Wisconsin pilot careers
 
 417 users online  

FD51 Summerland Key Cove Airport
Summerland Key, Florida, USA

GOING TO SUMMERLAND KEY?


FAA INFORMATION EFFECTIVE 08 NOVEMBER 2018

Location

FAA Identifier: FD51
Lat/Long: 24-39-31.5160N / 081-26-29.2970W
24-39.525267N / 081-26.488283W
24.6587544 / -81.4414714
(estimated)
Elevation: 4 ft. / 1 m (estimated)
Variation: 02W (1985)
From city: ARPT LCTD 25 MI EAST OF KEY WEST.
Time zone: UTC -5 (UTC -4 during Daylight Saving Time)
Zip code: 33042

Airport Operations

Airport use: Private use. Permission required prior to landing
Activation date: 10/1957
Control tower: no
ARTCC: MIAMI CENTER
FSS: MIAMI FLIGHT SERVICE STATION
Attendance: DAYLIGHT HOURS
Wind indicator: yes
Segmented circle: no
Landing fee: yes

Airport Communications

WX ASOS at EYW (18 nm W): PHONE 305-292-4046
  • MULTICOM 122.9

Nearby radio navigation aids

VOR radial/distance  VOR name  Freq  Var
EYWr076/20.1KEY WEST VORTAC113.5001E

 
NDB name  Hdg/Dist  Freq  Var  ID
MARATHON264/19.126004WMTH -- - ....
FISH HOOK075/19.933204WFIS ..-. .. ...

Airport Services

Airframe service: NONE
Powerplant service: NONE

Runway Information

Runway 12/30

Dimensions: 2550 x 20 ft. / 777 x 6 m
Surface: asphalt
RUNWAY 12  RUNWAY 30
Traffic pattern: leftleft
Displaced threshold: 359 ft.290 ft.
Obstructions: 40 ft. pline, 350 ft. from runway25 ft. trees, 300 ft. from runway

Airport Ownership and Management from official FAA records

Ownership: Privately-owned
Owner: SUMMERLAND KEY COVE ARPT CO
PO BOX 420290
SUMMERLAND KEY, FL 33042
Phone 757-576-0159
Manager: MATT STETTNER
PO BOX 420290
SUMMERLAND KEY, FL 33042
Phone 757-576-0159

Airport Operational Statistics

Aircraft based on the field: 16
Single engine airplanes: 14
Multi engine airplanes: 2
    

Additional Remarks

35' PLINES 100' EACH SIDE OF RWY.

Instrument Procedures

There are no published instrument procedures at FD51.

Some nearby airports with instrument procedures:

KNQX - Key West Naval Air Station (Boca Chica Field) (14 nm W)
KEYW - Key West International Airport (18 nm W)
KMTH - The Florida Keys Marathon International Airport (22 nm E)
X51 - Miami Homestead General Aviation Airport (70 nm NE)
07FA - Ocean Reef Club Airport (75 nm NE)
 
Loc | Ops | Rwys | IFR | FBO | Links
Com | Nav | Svcs | Stats | Notes


 
Area around FD51 (Summerland Key Cove Airport)
 
Road maps at: MapQuest Bing Google
 
Aerial photo
WARNING: Photo may not be current or correct
Aerial photo of FD51 (Summerland Key Cove Airport)
Do you have a better or more recent aerial photo of Summerland Key Cove Airport that you would like to share? If so, please send us your photo.

 
Sectional chart

 
Airport distance calculator
Flying to Summerland Key Cove Airport? Find the distance to fly.

From to FD51

Sunrise and sunset
Times for 18-Nov-2018
 Local
(UTC-5)
 Zulu
(UTC)
Morning civil twilight06:2111:21
Sunrise06:4511:45
Sunset17:3722:37
Evening civil twilight18:0123:01

Current date and time
Zulu (UTC)  18-Nov-2018 06:55:02
Local (UTC-5)  18-Nov-2018 01:55:02
 
METAR
KNQX 
13nm SW 
180553Z AUTO 05008KT 10SM BKN040 OVC046 24/19 A3004 RMK AO2 SLP169 60000 T02440189 10244 20239 58012
KEYW 
18nm W 
180553Z AUTO 04005KT 10SM OVC034 25/19 A3004 RMK AO2 SLP171 60000 T02500194 10250 20244 58012
KMTH 
22nm E 
180553Z AUTO 05009KT 10SM BKN035 OVC060 24/21 A3003 RMK AO2 SLP169 T02390206 10239 20233 58010
TAF
KNQX 
13nm SW 
1723/1823 04008KT 9999 SCT020 BKN035 OVC050 QNH3000INS TEMPO 1723/1805 BKN020 BECMG 1813/1815 04008KT 9999 06010KT FEW010 SCT030 OVC050 QNH3004INS BECMG 1820/1822 04008KT 9999 FEW020 SCT035 BKN050 QNH3000INS T22/1811Z T27/1819Z FN00178
KEYW 
18nm W 
180535Z 1806/1906 06008KT P6SM FEW030 BKN045 BKN070 FM181500 08009KT P6SM SCT045 BKN070
NOTAMs
Click for the latest NOTAMs
NOTAMs are issued by the DoD/FAA and will open in a separate window not controlled by AirNav.

 

 
 

Would you like to see your business listed on this page?

 If your business provides an interesting product or service to pilots, flight crews, aircraft, or users of the Summerland Key Cove Airport, you should consider listing it here.  To start the listing process, click on the button below
 
Add a business
 

Other Pages about Summerland Key Cove Airport

Update a link
 
Copyright © AirNav, LLC. All rights reserved. Privacy Policy  Contact